Total_Precipitation_Accumulation
0.55 0.42 0.46 0.46 0.36 0.44 0.74 0.74 0.76 0.46 0.34 0.33 0.31 0.28 0.25 0.27 0.27 0.27 0.28 0.30 0.34 0.38 0.41 0.44 0.43 0.42 0.45 0.51 0.57 0.60 0.62 0.68 0.72 0.74 0.77 0.87 0.91 0.87 0.87 0.90 0.96 1.00 1.01 1.06
0.58 0.35 0.34 0.37 0.29 0.34 0.43 0.45 0.51 0.40 0.36 0.26 0.25 0.23 0.23 0.25 0.23 0.21 0.23 0.24 0.26 0.31 0.37 0.40 0.38 0.37 0.38 0.41 0.45 0.47 0.49 0.54 0.61 0.68 0.78 0.87 0.94 0.91 0.88 0.86 0.91 0.98 0.98 1.03
0.57 0.28 0.40 0.44 0.32 0.35 0.38 0.37 0.43 0.46 0.38 0.24 0.23 0.22 0.22 0.23 0.20 0.18 0.18 0.18 0.19 0.22 0.28 0.30 0.30 0.32 0.35 0.36 0.39 0.42 0.41 0.43 0.50 0.63 0.73 0.79 0.84 0.89 0.90 0.90 1.00 1.10 1.10 1.12
0.66 0.45 0.53 0.30 0.20 0.24 0.30 0.33 0.35 0.33 0.26 0.19 0.20 0.21 0.21 0.21 0.19 0.16 0.15 0.15 0.15 0.18 0.21 0.21 0.23 0.24 0.26 0.28 0.34 0.42 0.45 0.47 0.52 0.58 0.68 0.79 0.83 0.88 0.94 0.96 1.05 1.14 1.20 1.22
0.80 0.58 0.32 0.15 0.12 0.17 0.28 0.33 0.22 0.20 0.17 0.13 0.14 0.16 0.16 0.17 0.16 0.15 0.15 0.15 0.14 0.16 0.17 0.16 0.18 0.21 0.21 0.22 0.28 0.37 0.43 0.48 0.48 0.54 0.64 0.75 0.85 0.92 0.96 1.01 1.06 1.12 1.12 1.09
0.90 0.71 0.37 0.17 0.07 0.09 0.24 0.43 0.18 0.13 0.12 0.12 0.13 0.20 0.18 0.15 0.16 0.13 0.14 0.18 0.18 0.17 0.16 0.16 0.18 0.20 0.23 0.25 0.29 0.37 0.41 0.45 0.47 0.50 0.59 0.69 0.80 0.89 0.93 0.95 0.96 0.95 0.95 0.91
0.76 0.68 0.31 0.14 0.06 0.09 0.37 0.52 0.21 0.14 0.13 0.14 0.16 0.18 0.15 0.12 0.11 0.12 0.14 0.18 0.22 0.25 0.25 0.26 0.28 0.29 0.31 0.32 0.35 0.38 0.42 0.47 0.49 0.52 0.58 0.66 0.72 0.76 0.77 0.76 0.74 0.73 0.72 0.70
0.48 0.65 0.38 0.17 0.15 0.26 0.35 0.23 0.16 0.15 0.16 0.19 0.21 0.18 0.15 0.13 0.11 0.12 0.15 0.18 0.23 0.28 0.30 0.32 0.33 0.35 0.36 0.39 0.40 0.41 0.43 0.47 0.52 0.54 0.53 0.54 0.57 0.61 0.59 0.59 0.58 0.57 0.57 0.58
0.35 0.39 0.28 0.22 0.26 0.28 0.26 0.21 0.17 0.16 0.15 0.18 0.24 0.24 0.21 0.18 0.15 0.13 0.15 0.17 0.20 0.24 0.25 0.25 0.30 0.36 0.40 0.41 0.41 0.39 0.42 0.43 0.44 0.46 0.45 0.46 0.46 0.47 0.49 0.51 0.52 0.54 0.54 0.55
0.31 0.28 0.23 0.22 0.22 0.20 0.19 0.18 0.16 0.16 0.16 0.17 0.19 0.22 0.22 0.21 0.19 0.19 0.17 0.15 0.16 0.17 0.19 0.20 0.22 0.26 0.31 0.33 0.33 0.31 0.34 0.33 0.33 0.33 0.36 0.37 0.38 0.40 0.43 0.45 0.45 0.46 0.48 0.48
0.30 0.24 0.18 0.17 0.15 0.14 0.13 0.11 0.11 0.13 0.14 0.15 0.16 0.19 0.21 0.20 0.18 0.19 0.18 0.16 0.14 0.14 0.14 0.15 0.16 0.18 0.21 0.24 0.24 0.24 0.25 0.24 0.24 0.25 0.31 0.35 0.36 0.37 0.40 0.43 0.48 0.49 0.46 0.46
0.32 0.21 0.20 0.19 0.14 0.12 0.12 0.11 0.11 0.12 0.14 0.13 0.14 0.17 0.18 0.17 0.16 0.16 0.17 0.17 0.14 0.13 0.13 0.13 0.14 0.14 0.15 0.18 0.21 0.23 0.23 0.22 0.23 0.22 0.26 0.34 0.38 0.38 0.42 0.45 0.51 0.55 0.55 0.51
0.20 0.17 0.15 0.14 0.13 0.12 0.11 0.11 0.11 0.11 0.12 0.11 0.10 0.11 0.13 0.14 0.15 0.15 0.15 0.14 0.13 0.13 0.13 0.13 0.14 0.15 0.15 0.16 0.19 0.22 0.23 0.24 0.25 0.25 0.28 0.33 0.35 0.36 0.37 0.38 0.43 0.49 0.52 0.53
0.11 0.10 0.10 0.10 0.10 0.10 0.09 0.09 0.09 0.09 0.10 0.10 0.10 0.11 0.11 0.12 0.14 0.15 0.16 0.17 0.15 0.13 0.12 0.13 0.13 0.12 0.12 0.14 0.17 0.20 0.23 0.26 0.25 0.26 0.30 0.33 0.36 0.37 0.36 0.34 0.34 0.35 0.40 0.47
0.07 0.07 0.08 0.07 0.06 0.06 0.06 0.06 0.06 0.07 0.07 0.09 0.10 0.11 0.12 0.13 0.16 0.18 0.17 0.16 0.16 0.14 0.12 0.11 0.12 0.12 0.12 0.13 0.15 0.18 0.21 0.22 0.23 0.25 0.28 0.31 0.33 0.37 0.36 0.34 0.32 0.30 0.30 0.37
0.07 0.06 0.06 0.06 0.05 0.05 0.05 0.05 0.05 0.07 0.08 0.09 0.11 0.12 0.12 0.14 0.16 0.18 0.17 0.16 0.16 0.15 0.13 0.12 0.12 0.11 0.13 0.15 0.16 0.17 0.19 0.22 0.23 0.23 0.25 0.28 0.31 0.33 0.35 0.33 0.32 0.30 0.29 0.31
0.12 0.11 0.10 0.09 0.08 0.07 0.07 0.07 0.08 0.08 0.09 0.09 0.11 0.13 0.14 0.14 0.16 0.18 0.18 0.17 0.17 0.17 0.16 0.15 0.14 0.13 0.13 0.15 0.17 0.19 0.20 0.21 0.24 0.23 0.24 0.27 0.30 0.32 0.35 0.37 0.36 0.32 0.31 0.36
0.15 0.16 0.16 0.15 0.14 0.12 0.10 0.10 0.10 0.10 0.10 0.11 0.10 0.11 0.13 0.15 0.17 0.18 0.19 0.18 0.18 0.19 0.18 0.18 0.18 0.17 0.15 0.16 0.18 0.19 0.21 0.21 0.21 0.22 0.23 0.27 0.31 0.32 0.33 0.34 0.35 0.34 0.31 0.36
0.14 0.17 0.18 0.17 0.16 0.16 0.15 0.14 0.14 0.14 0.13 0.13 0.14 0.14 0.15 0.16 0.17 0.19 0.20 0.20 0.20 0.20 0.20 0.19 0.22 0.18 0.16 0.17 0.22 0.21 0.22 0.22 0.23 0.23 0.25 0.29 0.31 0.30 0.30 0.32 0.34 0.34 0.33 0.32
0.16 0.17 0.18 0.18 0.17 0.17 0.16 0.15 0.13 0.13 0.13 0.13 0.14 0.15 0.17 0.18 0.18 0.19 0.19 0.20 0.21 0.22 0.22 0.22 0.21 0.17 0.17 0.18 0.24 0.22 0.22 0.24 0.26 0.26 0.28 0.29 0.29 0.29 0.30 0.32 0.33 0.33 0.32 0.32
0.16 0.17 0.17 0.18 0.18 0.18 0.18 0.17 0.16 0.15 0.13 0.13 0.14 0.16 0.16 0.17 0.18 0.18 0.18 0.19 0.18 0.18 0.18 0.21 0.19 0.17 0.19 0.24 0.29 0.25 0.24 0.26 0.28 0.29 0.29 0.30 0.31 0.31 0.31 0.32 0.33 0.33 0.33 0.33
0.16 0.17 0.18 0.18 0.18 0.18 0.17 0.16 0.15 0.16 0.16 0.15 0.15 0.15 0.15 0.16 0.17 0.17 0.16 0.17 0.17 0.19 0.18 0.16 0.17 0.21 0.28 0.32 0.28 0.26 0.26 0.29 0.30 0.31 0.31 0.30 0.32 0.33 0.34 0.34 0.35 0.35 0.35 0.36
0.16 0.16 0.16 0.16 0.16 0.17 0.17 0.16 0.16 0.17 0.17 0.17 0.17 0.17 0.17 0.18 0.18 0.18 0.19 0.16 0.16 0.18 0.18 0.17 0.21 0.27 0.31 0.30 0.25 0.25 0.27 0.29 0.31 0.31 0.31 0.32 0.33 0.34 0.36 0.36 0.36 0.35 0.36 0.36
0.14 0.13 0.14 0.14 0.14 0.15 0.16 0.17 0.17 0.17 0.17 0.17 0.17 0.17 0.17 0.19 0.19 0.18 0.18 0.18 0.18 0.20 0.18 0.19 0.23 0.26 0.27 0.24 0.23 0.24 0.25 0.27 0.29 0.30 0.31 0.32 0.34 0.35 0.35 0.34 0.34 0.31 0.31 0.32
0.11 0.12 0.13 0.13 0.13 0.13 0.15 0.16 0.16 0.16 0.16 0.15 0.15 0.15 0.16 0.18 0.19 0.18 0.16 0.16 0.17 0.19 0.17 0.17 0.20 0.22 0.22 0.20 0.21 0.22 0.24 0.25 0.28 0.31 0.32 0.31 0.32 0.33 0.33 0.32 0.32 0.30 0.29 0.28
0.09 0.09 0.09 0.11 0.12 0.13 0.14 0.17 0.19 0.17 0.16 0.16 0.15 0.14 0.14 0.13 0.14 0.15 0.16 0.17 0.17 0.18 0.17 0.16 0.17 0.20 0.20 0.20 0.21 0.22 0.23 0.24 0.25 0.26 0.26 0.28 0.30 0.31 0.31 0.30 0.29 0.28 0.28 0.26
0.07 0.07 0.07 0.08 0.10 0.11 0.12 0.14 0.18 0.19 0.18 0.18 0.17 0.14 0.14 0.14 0.15 0.17 0.17 0.17 0.17 0.18 0.17 0.17 0.18 0.20 0.21 0.22 0.22 0.22 0.22 0.23 0.23 0.23 0.24 0.26 0.28 0.29 0.29 0.29 0.30 0.29 0.28 0.27